DLH6CH EDDF-EGLL

Flight info

Callsign DLH6CH
Flight time 1h 14m
Altitude 36000
Route OBOKA3M/25C OBOKA Z29 TORNU DCT ABNED L980 LOGAN
Aircraft A21N/M-SDE2E3FGIJ1LORWXYZ/HB1

Departure

Time 2026-04-14 09:14
Airport Frankfurt Main Airport (EDDF)

Arrival

Time 2026-04-14 10:29
Airport London Heathrow Airport (EGLL)
Time Latitude Longitude Altitude Speed Heading
2026-04-14 08:34 50.04700 8.57087 364 ft 0 kts 115°
2026-04-14 09:01 50.04701 8.57084 364 ft 3 kts 115°
2026-04-14 09:02 50.04712 8.57047 361 ft 4 kts 116°
2026-04-14 09:02 50.04725 8.57017 362 ft 4 kts 152°
2026-04-14 09:02 50.04749 8.57010 361 ft 4 kts 188°
2026-04-14 09:02 50.04775 8.57021 361 ft 3 kts 204°
2026-04-14 09:03 50.04778 8.57023 361 ft 0 kts 205°
2026-04-14 09:07 50.04769 8.57017 361 ft 4 kts 205°
2026-04-14 09:07 50.04739 8.56995 361 ft 6 kts 205°
2026-04-14 09:07 50.04694 8.56963 361 ft 8 kts 205°
2026-04-14 09:07 50.04635 8.56924 364 ft 10 kts 197°
2026-04-14 09:08 50.04560 8.56893 366 ft 12 kts 193°
2026-04-14 09:08 50.04470 8.56861 365 ft 14 kts 192°
2026-04-14 09:08 50.04367 8.56834 365 ft 16 kts 191°
2026-04-14 09:08 50.04284 8.56875 367 ft 15 kts 103°
2026-04-14 09:09 50.04307 8.57037 367 ft 16 kts 70°
2026-04-14 09:09 50.04349 8.57212 368 ft 18 kts 69°
2026-04-14 09:09 50.04394 8.57399 372 ft 19 kts 70°
2026-04-14 09:09 50.04442 8.57598 375 ft 20 kts 70°
2026-04-14 09:10 50.04492 8.57811 371 ft 22 kts 69°
2026-04-14 09:10 50.04525 8.57942 369 ft 8 kts 69°
2026-04-14 09:10 50.04533 8.58031 369 ft 9 kts 110°
2026-04-14 09:10 50.04475 8.58097 370 ft 12 kts 159°
2026-04-14 09:11 50.04386 8.58120 372 ft 14 kts 211°
2026-04-14 09:11 50.04367 8.58085 372 ft 0 kts 251°
2026-04-14 09:14 50.04303 8.57809 371 ft 64 kts 249°
2026-04-14 09:14 50.04062 8.56786 367 ft 136 kts 250°
2026-04-14 09:14 50.03667 8.55140 417 ft 179 kts 252°
2026-04-14 09:14 50.03242 8.53357 1105 ft 177 kts 252°
2026-04-14 09:15 50.02804 8.51536 1853 ft 180 kts 252°
2026-04-14 09:15 50.02287 8.49709 2423 ft 196 kts 237°
2026-04-14 09:15 50.01164 8.48348 3030 ft 216 kts 202°
2026-04-14 09:15 49.99654 8.47853 3794 ft 224 kts 187°
2026-04-14 09:16 49.98104 8.47527 4640 ft 226 kts 187°
2026-04-14 09:16 49.96549 8.47172 5477 ft 226 kts 191°
2026-04-14 09:16 49.95006 8.46585 6204 ft 233 kts 198°
2026-04-14 09:16 49.93395 8.45847 6730 ft 250 kts 198°
2026-04-14 09:17 49.91757 8.44861 7372 ft 256 kts 214°
2026-04-14 09:17 49.90518 8.42926 8189 ft 254 kts 238°
2026-04-14 09:17 49.89619 8.40572 9040 ft 254 kts 241°
2026-04-14 09:17 49.88791 8.38140 9868 ft 256 kts 249°
2026-04-14 09:18 49.88460 8.35406 10448 ft 267 kts 270°
2026-04-14 09:18 49.88609 8.32419 10761 ft 289 kts 275°
2026-04-14 09:18 49.88835 8.29208 11082 ft 310 kts 276°
2026-04-14 09:18 49.89410 8.25933 11592 ft 321 kts 294°
2026-04-14 09:19 49.90628 8.22990 12303 ft 327 kts 305°
2026-04-14 09:19 49.92015 8.20167 13062 ft 330 kts 306°
2026-04-14 09:19 49.93418 8.17319 13804 ft 334 kts 305°
2026-04-14 09:19 49.95021 8.14664 14479 ft 341 kts 316°
2026-04-14 09:20 49.96831 8.12252 15148 ft 345 kts 317°
2026-04-14 09:20 49.98672 8.09833 15808 ft 348 kts 317°
2026-04-14 09:20 50.00533 8.07376 16464 ft 352 kts 317°
2026-04-14 09:20 50.02404 8.04882 17117 ft 356 kts 317°
2026-04-14 09:21 50.04290 8.02354 17760 ft 359 kts 317°
2026-04-14 09:21 50.06193 7.99803 18406 ft 363 kts 317°
2026-04-14 09:21 50.08115 7.97227 18968 ft 367 kts 317°
2026-04-14 09:21 50.10059 7.94624 19534 ft 370 kts 317°
2026-04-14 09:22 50.12017 7.91996 20093 ft 373 kts 317°
2026-04-14 09:22 50.13962 7.89378 20641 ft 376 kts 316°
2026-04-14 09:22 50.15946 7.86696 21194 ft 379 kts 316°
2026-04-14 09:22 50.17973 7.83952 21743 ft 382 kts 316°
2026-04-14 09:23 50.19963 7.81266 22283 ft 385 kts 317°
2026-04-14 09:23 50.21988 7.78529 22876 ft 386 kts 317°
2026-04-14 09:23 50.24028 7.75776 23416 ft 389 kts 317°
2026-04-14 09:23 50.26242 7.73313 23884 ft 394 kts 329°
2026-04-14 09:24 50.28733 7.71476 24315 ft 398 kts 334°
2026-04-14 09:24 50.31285 7.69754 24760 ft 400 kts 335°
2026-04-14 09:24 50.33851 7.68029 25207 ft 402 kts 334°
2026-04-14 09:24 50.36420 7.66289 25656 ft 404 kts 335°
2026-04-14 09:25 50.39004 7.64535 26085 ft 405 kts 334°
2026-04-14 09:25 50.41596 7.62761 26516 ft 407 kts 334°
2026-04-14 09:25 50.44193 7.60971 26930 ft 409 kts 334°
2026-04-14 09:25 50.46807 7.59164 27334 ft 411 kts 334°
2026-04-14 09:26 50.49431 7.57360 27725 ft 412 kts 334°
2026-04-14 09:26 50.52061 7.55539 28113 ft 414 kts 334°
2026-04-14 09:26 50.54706 7.53704 28502 ft 416 kts 333°
2026-04-14 09:26 50.57242 7.51512 28873 ft 416 kts 326°
2026-04-14 09:27 50.59683 7.49041 29239 ft 418 kts 325°
2026-04-14 09:27 50.62129 7.46525 29612 ft 420 kts 325°
2026-04-14 09:27 50.64539 7.44040 30008 ft 421 kts 325°
2026-04-14 09:27 50.66993 7.41511 30357 ft 422 kts 325°
2026-04-14 09:28 50.69453 7.38977 30648 ft 423 kts 325°
2026-04-14 09:28 50.71906 7.36398 30931 ft 424 kts 322°
2026-04-14 09:28 50.74118 7.33328 31200 ft 424 kts 311°
2026-04-14 09:28 50.75882 7.29604 31461 ft 424 kts 300°
2026-04-14 09:29 50.77274 7.25493 31725 ft 425 kts 297°
2026-04-14 09:29 50.78609 7.21307 31987 ft 427 kts 296°
2026-04-14 09:29 50.79949 7.17115 32229 ft 428 kts 297°
2026-04-14 09:29 50.81300 7.12912 32469 ft 429 kts 297°
2026-04-14 09:30 50.82661 7.08692 32708 ft 430 kts 297°
2026-04-14 09:30 50.84022 7.04488 33028 ft 429 kts 297°
2026-04-14 09:30 50.85377 7.00294 33352 ft 427 kts 297°
2026-04-14 09:30 50.86724 6.96098 33653 ft 426 kts 297°
2026-04-14 09:31 50.88050 6.91971 33934 ft 425 kts 297°
2026-04-14 09:31 50.89395 6.87785 34174 ft 425 kts 297°
2026-04-14 09:31 50.90730 6.83625 34367 ft 425 kts 297°
2026-04-14 09:31 50.92068 6.79448 34540 ft 425 kts 297°
2026-04-14 09:32 50.93403 6.75269 34706 ft 425 kts 297°
2026-04-14 09:32 50.94739 6.71085 34885 ft 425 kts 297°
2026-04-14 09:32 50.97405 6.62704 35198 ft 426 kts 297°
2026-04-14 09:33 50.98744 6.58516 35377 ft 425 kts 298°
2026-04-14 09:33 51.00082 6.54326 35568 ft 425 kts 298°
2026-04-14 09:33 51.01412 6.50143 35727 ft 424 kts 297°
2026-04-14 09:33 51.02737 6.45951 35866 ft 425 kts 297°
2026-04-14 09:34 51.04061 6.41756 36001 ft 425 kts 297°
2026-04-14 09:34 51.05384 6.37559 36147 ft 425 kts 297°
2026-04-14 09:34 51.06694 6.33401 36224 ft 426 kts 297°
2026-04-14 09:35 51.09342 6.24949 36234 ft 427 kts 297°
2026-04-14 09:35 51.11991 6.16486 36218 ft 427 kts 297°
2026-04-14 09:36 51.14360 6.07865 36217 ft 426 kts 288°
2026-04-14 09:36 51.15856 5.98729 36218 ft 426 kts 286°
2026-04-14 09:37 51.17309 5.89591 36212 ft 425 kts 286°
2026-04-14 09:37 51.19023 5.80592 36219 ft 423 kts 294°
2026-04-14 09:38 51.21308 5.71952 36210 ft 421 kts 294°
2026-04-14 09:38 51.23572 5.63433 36201 ft 418 kts 295°
2026-04-14 09:39 51.25824 5.54871 36197 ft 418 kts 295°
2026-04-14 09:39 51.28064 5.46300 36200 ft 418 kts 295°
2026-04-14 09:40 51.30299 5.37713 36202 ft 418 kts 294°
2026-04-14 09:40 51.32516 5.29172 36204 ft 418 kts 294°
2026-04-14 09:41 51.34735 5.20593 36199 ft 416 kts 295°
2026-04-14 09:41 51.36938 5.12054 36203 ft 415 kts 294°
2026-04-14 09:42 51.38764 5.04947 36202 ft 415 kts 294°
2026-04-14 09:42 51.40948 4.96397 36201 ft 415 kts 294°
2026-04-14 09:43 51.43130 4.87827 36202 ft 415 kts 294°
2026-04-14 09:43 51.45302 4.79253 36199 ft 415 kts 294°
2026-04-14 09:44 51.47457 4.70729 36197 ft 411 kts 294°
2026-04-14 09:44 51.49603 4.62222 36206 ft 411 kts 294°
2026-04-14 09:45 51.51727 4.53765 36201 ft 411 kts 294°
2026-04-14 09:45 51.53856 4.45257 36202 ft 410 kts 294°
2026-04-14 09:46 51.55954 4.36826 36198 ft 411 kts 294°
2026-04-14 09:46 51.58094 4.28219 36200 ft 411 kts 294°
2026-04-14 09:47 51.60206 4.19689 36202 ft 411 kts 294°
2026-04-14 09:47 51.62315 4.11131 36202 ft 411 kts 294°
2026-04-14 09:48 51.64408 4.02572 36201 ft 411 kts 294°
2026-04-14 09:48 51.66495 3.94013 36203 ft 411 kts 294°
2026-04-14 09:49 51.68581 3.85436 36187 ft 410 kts 294°
2026-04-14 09:49 51.70647 3.76905 36197 ft 408 kts 294°
2026-04-14 09:50 51.72709 3.68366 36199 ft 408 kts 294°
2026-04-14 09:50 51.74767 3.59821 36197 ft 408 kts 294°
2026-04-14 09:51 51.76798 3.51344 36204 ft 406 kts 293°
2026-04-14 09:51 51.78811 3.42872 36201 ft 402 kts 293°
2026-04-14 09:52 51.80807 3.34481 36193 ft 398 kts 294°
2026-04-14 09:52 51.82786 3.26184 36213 ft 395 kts 293°
2026-04-14 09:53 51.84499 3.17624 36213 ft 406 kts 284°
2026-04-14 09:53 51.84708 3.13042 36204 ft 413 kts 271°
2026-04-14 09:53 51.84448 3.08394 36211 ft 416 kts 268°
2026-04-14 09:54 51.83756 2.99081 36197 ft 415 kts 268°
2026-04-14 09:54 51.83434 2.94487 35999 ft 408 kts 268°
2026-04-14 09:54 51.83127 2.89955 35677 ft 403 kts 269°
2026-04-14 09:54 51.82830 2.85476 35345 ft 398 kts 269°
2026-04-14 09:55 51.82538 2.81113 35006 ft 394 kts 269°
2026-04-14 09:55 51.82240 2.76724 34676 ft 391 kts 269°
2026-04-14 09:55 51.81947 2.72382 34347 ft 387 kts 269°
2026-04-14 09:55 51.81653 2.68066 33984 ft 384 kts 269°
2026-04-14 09:56 51.81360 2.63787 33600 ft 381 kts 269°
2026-04-14 09:56 51.81068 2.59533 33221 ft 379 kts 269°
2026-04-14 09:56 51.80775 2.55314 32848 ft 376 kts 269°
2026-04-14 09:56 51.80484 2.51128 32480 ft 374 kts 269°
2026-04-14 09:57 51.80194 2.46976 32115 ft 371 kts 270°
2026-04-14 09:57 51.79907 2.42846 31757 ft 369 kts 270°
2026-04-14 09:57 51.79617 2.38749 31393 ft 364 kts 270°
2026-04-14 09:57 51.79330 2.34699 31045 ft 362 kts 270°
2026-04-14 09:58 51.79044 2.30677 30695 ft 359 kts 270°
2026-04-14 09:58 51.78757 2.26683 30378 ft 357 kts 270°
2026-04-14 09:58 51.78475 2.22698 30024 ft 356 kts 270°
2026-04-14 09:58 51.78237 2.18733 29683 ft 354 kts 271°
2026-04-14 09:59 51.78005 2.14775 29349 ft 352 kts 271°
2026-04-14 09:59 51.77775 2.10848 29044 ft 352 kts 271°
2026-04-14 09:59 51.77545 2.06922 28759 ft 351 kts 271°
2026-04-14 09:59 51.77316 2.03001 28479 ft 350 kts 270°
2026-04-14 10:00 51.77085 1.99151 28211 ft 348 kts 270°
2026-04-14 10:00 51.76853 1.95272 27943 ft 347 kts 270°
2026-04-14 10:00 51.76622 1.91407 27665 ft 344 kts 270°
2026-04-14 10:00 51.76390 1.87569 27401 ft 343 kts 270°
2026-04-14 10:01 51.76157 1.83746 27141 ft 342 kts 269°
2026-04-14 10:01 51.75925 1.79927 26882 ft 341 kts 269°
2026-04-14 10:01 51.75691 1.76118 26627 ft 341 kts 269°
2026-04-14 10:01 51.75455 1.72319 26374 ft 340 kts 269°
2026-04-14 10:02 51.75218 1.68534 26185 ft 339 kts 269°
2026-04-14 10:02 51.74980 1.64747 26161 ft 339 kts 269°
2026-04-14 10:02 51.74742 1.60958 26170 ft 339 kts 269°
2026-04-14 10:02 51.74504 1.57192 25781 ft 337 kts 269°
2026-04-14 10:03 51.74263 1.53395 24982 ft 344 kts 268°
2026-04-14 10:03 51.74014 1.49513 24142 ft 352 kts 268°
2026-04-14 10:03 51.73758 1.45548 23370 ft 356 kts 267°
2026-04-14 10:03 51.73506 1.41655 22885 ft 350 kts 267°
2026-04-14 10:04 51.73253 1.37762 22309 ft 347 kts 267°
2026-04-14 10:04 51.73000 1.33901 21715 ft 345 kts 266°
2026-04-14 10:04 51.72745 1.30061 21155 ft 343 kts 266°
2026-04-14 10:04 51.72493 1.26244 20613 ft 340 kts 266°
2026-04-14 10:05 51.72242 1.22465 20064 ft 337 kts 265°
2026-04-14 10:05 51.71993 1.18714 19492 ft 334 kts 265°
2026-04-14 10:05 51.71744 1.15000 18932 ft 332 kts 265°
2026-04-14 10:05 51.71500 1.11360 18395 ft 330 kts 264°
2026-04-14 10:06 51.71251 1.07697 17781 ft 327 kts 264°
2026-04-14 10:06 51.71003 1.04072 17207 ft 323 kts 264°
2026-04-14 10:06 51.70758 1.00506 16750 ft 317 kts 264°
2026-04-14 10:06 51.70520 0.97031 16359 ft 308 kts 264°
2026-04-14 10:07 51.70289 0.93664 16160 ft 298 kts 264°
2026-04-14 10:07 51.70061 0.90355 16135 ft 297 kts 264°
2026-04-14 10:07 51.69831 0.87042 16147 ft 297 kts 264°
2026-04-14 10:07 51.69598 0.83738 16156 ft 296 kts 264°
2026-04-14 10:08 51.69363 0.80433 16172 ft 297 kts 264°
2026-04-14 10:08 51.69131 0.77124 15995 ft 295 kts 264°
2026-04-14 10:08 51.68899 0.73822 15224 ft 300 kts 264°
2026-04-14 10:08 51.68661 0.70440 14382 ft 307 kts 264°
2026-04-14 10:09 51.68416 0.66994 13644 ft 310 kts 264°
2026-04-14 10:09 51.68170 0.63551 13026 ft 308 kts 264°
2026-04-14 10:09 51.67926 0.60144 12438 ft 305 kts 264°
2026-04-14 10:09 51.67682 0.56769 11846 ft 302 kts 264°
2026-04-14 10:10 51.67439 0.53430 11269 ft 299 kts 264°
2026-04-14 10:10 51.67199 0.50119 10698 ft 296 kts 264°
2026-04-14 10:10 51.66961 0.46847 10129 ft 294 kts 264°
2026-04-14 10:10 51.66724 0.43613 9701 ft 286 kts 263°
2026-04-14 10:11 51.66494 0.40496 9394 ft 275 kts 263°
2026-04-14 10:11 51.66271 0.37478 8965 ft 269 kts 263°
2026-04-14 10:11 51.66050 0.34495 8450 ft 267 kts 262°
2026-04-14 10:11 51.65830 0.31544 8175 ft 266 kts 262°
2026-04-14 10:12 51.65612 0.28595 8125 ft 265 kts 262°
2026-04-14 10:12 51.65391 0.25646 8126 ft 267 kts 262°
2026-04-14 10:12 51.65167 0.22687 8138 ft 265 kts 262°
2026-04-14 10:12 51.64945 0.19735 8146 ft 264 kts 262°
2026-04-14 10:13 51.64724 0.16827 8144 ft 266 kts 262°
2026-04-14 10:13 51.64537 0.13883 8138 ft 265 kts 265°
2026-04-14 10:13 51.64432 0.10923 8142 ft 264 kts 266°
2026-04-14 10:13 51.64345 0.07967 8140 ft 266 kts 266°
2026-04-14 10:14 51.64258 0.04997 8142 ft 266 kts 266°
2026-04-14 10:14 51.64172 0.02030 8142 ft 265 kts 266°
2026-04-14 10:14 51.64081 -0.00946 8130 ft 267 kts 266°
2026-04-14 10:14 51.63991 -0.03952 8133 ft 266 kts 265°
2026-04-14 10:15 51.63911 -0.06934 8119 ft 267 kts 265°
2026-04-14 10:15 51.63830 -0.09928 8114 ft 268 kts 266°
2026-04-14 10:15 51.63752 -0.12903 8111 ft 264 kts 266°
2026-04-14 10:15 51.63679 -0.15857 8113 ft 264 kts 266°
2026-04-14 10:16 51.63601 -0.18825 8116 ft 268 kts 266°
2026-04-14 10:16 51.63516 -0.21832 8115 ft 265 kts 266°
2026-04-14 10:16 51.63435 -0.24808 8113 ft 268 kts 266°
2026-04-14 10:16 51.63349 -0.27799 8119 ft 268 kts 266°
2026-04-14 10:17 51.63262 -0.30749 8117 ft 256 kts 265°
2026-04-14 10:17 51.63195 -0.33500 8103 ft 237 kts 266°
2026-04-14 10:17 51.63130 -0.36133 8089 ft 234 kts 266°
2026-04-14 10:17 51.63069 -0.38732 7881 ft 232 kts 265°
2026-04-14 10:18 51.62982 -0.44025 7423 ft 240 kts 266°
2026-04-14 10:18 51.62939 -0.46734 7185 ft 242 kts 266°
2026-04-14 10:18 51.62890 -0.49455 7104 ft 242 kts 265°
2026-04-14 10:19 51.62851 -0.52157 7092 ft 241 kts 265°
2026-04-14 10:19 51.62804 -0.54881 6880 ft 243 kts 265°
2026-04-14 10:19 51.62655 -0.57569 6599 ft 240 kts 255°
2026-04-14 10:19 51.62227 -0.60138 6298 ft 237 kts 251°
2026-04-14 10:20 51.61768 -0.62673 5983 ft 236 kts 250°
2026-04-14 10:20 51.61308 -0.65207 5661 ft 236 kts 251°
2026-04-14 10:20 51.60855 -0.67731 5351 ft 234 kts 251°
2026-04-14 10:20 51.60410 -0.70231 5032 ft 232 kts 251°
2026-04-14 10:21 51.59972 -0.72724 4712 ft 231 kts 250°
2026-04-14 10:21 51.59548 -0.75196 4364 ft 227 kts 250°
2026-04-14 10:21 51.59155 -0.77595 4016 ft 222 kts 251°
2026-04-14 10:21 51.58765 -0.79961 3668 ft 216 kts 245°
2026-04-14 10:22 51.58003 -0.81923 3330 ft 202 kts 217°
2026-04-14 10:22 51.56786 -0.82829 3034 ft 189 kts 186°
2026-04-14 10:22 51.55564 -0.82914 3011 ft 164 kts 181°
2026-04-14 10:22 51.54427 -0.82916 3001 ft 163 kts 181°
2026-04-14 10:23 51.53294 -0.82913 2997 ft 163 kts 180°
2026-04-14 10:23 51.52158 -0.82915 2993 ft 163 kts 181°
2026-04-14 10:23 51.51015 -0.82911 2986 ft 165 kts 176°
2026-04-14 10:23 51.49984 -0.82128 2972 ft 171 kts 139°
2026-04-14 10:24 51.49313 -0.80516 2993 ft 175 kts 126°
2026-04-14 10:24 51.48706 -0.78825 3001 ft 175 kts 126°
2026-04-14 10:24 51.48110 -0.77150 2993 ft 166 kts 125°
2026-04-14 10:24 51.47785 -0.75430 2991 ft 163 kts 105°
2026-04-14 10:25 51.47711 -0.73600 2989 ft 166 kts 99°
2026-04-14 10:25 51.47684 -0.71753 2936 ft 166 kts 99°
2026-04-14 10:25 51.47679 -0.69937 2773 ft 165 kts 98°
2026-04-14 10:25 51.47683 -0.68100 2563 ft 164 kts 97°
2026-04-14 10:26 51.47689 -0.66295 2341 ft 161 kts 96°
2026-04-14 10:26 51.47696 -0.64503 2128 ft 159 kts 97°
2026-04-14 10:26 51.47702 -0.62735 1943 ft 158 kts 96°
2026-04-14 10:26 51.47708 -0.60973 1738 ft 158 kts 96°
2026-04-14 10:27 51.47715 -0.59234 1505 ft 148 kts 96°
2026-04-14 10:27 51.47721 -0.57689 1256 ft 134 kts 95°
2026-04-14 10:27 51.47724 -0.56701 1131 ft 134 kts 95°
2026-04-14 10:27 51.47728 -0.55214 946 ft 133 kts 96°
2026-04-14 10:28 51.47733 -0.53707 767 ft 137 kts 97°
2026-04-14 10:28 51.47738 -0.52202 586 ft 133 kts 96°
2026-04-14 10:28 51.47744 -0.50709 369 ft 137 kts 97°
2026-04-14 10:28 51.47751 -0.49194 206 ft 133 kts 93°
2026-04-14 10:29 51.47759 -0.47745 98 ft 124 kts 95°
2026-04-14 10:29 51.47753 -0.46532 95 ft 83 kts 89°
2026-04-14 10:29 51.47754 -0.45881 93 ft 48 kts 89°
2026-04-14 10:29 51.47749 -0.45548 90 ft 20 kts 116°
2026-04-14 10:30 51.47665 -0.45468 91 ft 7 kts 180°
2026-04-14 10:30 51.47659 -0.45468 91 ft 0 kts 179°
2026-04-14 10:30 51.47637 -0.45467 91 ft 5 kts 171°
2026-04-14 10:31 51.47601 -0.45413 91 ft 10 kts 109°
2026-04-14 10:31 51.47596 -0.45283 95 ft 13 kts 90°
2026-04-14 10:31 51.47596 -0.45129 95 ft 15 kts 89°
2026-04-14 10:31 51.47597 -0.44955 92 ft 16 kts 90°
2026-04-14 10:32 51.47597 -0.44763 92 ft 15 kts 90°
2026-04-14 10:32 51.47541 -0.44657 93 ft 15 kts 155°
2026-04-14 10:32 51.47452 -0.44559 92 ft 17 kts 175°
2026-04-14 10:32 51.47332 -0.44560 91 ft 18 kts 180°
2026-04-14 10:33 51.47200 -0.44559 91 ft 20 kts 180°
2026-04-14 10:33 51.47063 -0.44559 92 ft 18 kts 180°
2026-04-14 10:33 51.46958 -0.44558 92 ft 12 kts 179°
2026-04-14 10:33 51.46880 -0.44558 91 ft 7 kts 199°
2026-04-14 10:34 51.46858 -0.44661 94 ft 1 kts 265°
2026-04-14 10:34 51.46858 -0.44676 94 ft 0 kts 266°
2026-04-14 10:34 51.46858 -0.44678 94 ft 0 kts 267°